Location: Unspecified
(41.1637°N, 24.2901°E)
Time: 05:52:17
(UTC+01:00)

ISS - Pass Details

Date: 10 December 2019
Orbit: 411 x 421 km, 51.6° (Epoch: 15 December)

Event Time Altitude Azimuth Distance (km) Brightness Sun altitude
Rises 16:50:24 0° 306° (NW) 2,358 0.5 -10.4°
Reaches altitude 10° 16:52:30 10° 306° (NW) 1,494 -0.5 -10.8°
Maximum altitude 16:55:51 86° 32° (NNE) 422 -3.8 -11.3°
Drops below altitude 10° 16:59:13 10° 125° (SE) 1,492 -1.3 -11.9°
Enters shadow 16:59:55 - 126° (SE) 1,778 -0.9 -12.1°
